Dades meteomassalio
Diari Summary for Maig 23, 2017 Units:  Metric    English   Both
« Previous Day
Next Day »
Diari Semanal Mensual Anual Personalitzat
  Maxima: Minima: Mijana:
Temperatura: 29.9 °C 12.8 °C 21.9 °C
Rosada: 13.2 °C 10.3 °C 12.1 °C
Humitat: 86 % 35 % 57 %
Velocitat del vent: 27.8 km/h 0.0 km/h 6.7 km/h
Racha vent: 27.8 km/h - -
Vent:- - SSE
Pressio: 1020.5 hPa 1016.5 hPa -
Pluja: 0.0 mm    
Historical Graphs
 
 
Tabular Data for Maig 23, 2017
Time Temperature Dew Point Pressure Wind Wind Speed Wind Gust Humidity Rainfall Rate (Hourly) solar Conditions
00:03 18.6 °C 12.3 °C 1016.5 hPa Calm     67 % 0.0 mm 0.0 W/m2 CLR
00:08 18.4 °C 12.4 °C 1016.8 hPa Calm     68 % 0.0 mm 0.0 W/m2 CLR
00:13 18.3 °C 12.5 °C 1016.8 hPa East 5.6 km/h 5.6 km/h 69 % 0.0 mm 0.0 W/m2 CLR
00:18 18.2 °C 12.7 °C 1016.8 hPa Calm     70 % 0.0 mm 0.0 W/m2 CLR
00:23 18.2 °C 12.7 °C 1016.8 hPa Calm     70 % 0.0 mm 0.0 W/m2 CLR
00:28 18.2 °C 12.9 °C 1016.8 hPa Calm     71 % 0.0 mm 0.0 W/m2 CLR
00:33 18.2 °C 12.8 °C 1016.8 hPa Calm     71 % 0.0 mm 0.0 W/m2 CLR
00:38 18.2 °C 13.1 °C 1016.8 hPa Calm     72 % 0.0 mm 0.0 W/m2 CLR
00:43 18.1 °C 13.0 °C 1017.2 hPa ENE 7.4 km/h 7.4 km/h 72 % 0.0 mm 0.0 W/m2 CLR
00:48 18.0 °C 12.9 °C 1017.2 hPa Calm     72 % 0.0 mm 0.0 W/m2 CLR
00:53 17.9 °C 13.0 °C 1017.2 hPa Calm     73 % 0.0 mm 0.0 W/m2 CLR
00:58 17.8 °C 12.9 °C 1017.2 hPa Calm     73 % 0.0 mm 0.0 W/m2 CLR
01:03 17.7 °C 12.8 °C 1017.2 hPa Calm     73 % 0.0 mm 0.0 W/m2 CLR
01:08 17.4 °C 12.5 °C 1016.8 hPa Calm     73 % 0.0 mm 0.0 W/m2 CLR
01:13 17.3 °C 12.8 °C 1016.8 hPa Calm     75 % 0.0 mm 0.0 W/m2 CLR
01:18 17.2 °C 12.7 °C 1017.2 hPa Calm     75 % 0.0 mm 0.0 W/m2 CLR
01:23 17.2 °C 12.7 °C 1017.2 hPa Calm     75 % 0.0 mm 0.0 W/m2 CLR
01:28 17.1 °C 12.8 °C 1017.2 hPa Calm     76 % 0.0 mm 0.0 W/m2 CLR
01:33 17.1 °C 12.8 °C 1017.5 hPa Calm     76 % 0.0 mm 0.0 W/m2 CLR
01:38 17.0 °C 12.7 °C 1017.5 hPa Calm     76 % 0.0 mm 0.0 W/m2 CLR
01:43 16.8 °C 12.6 °C 1017.5 hPa Calm     76 % 0.0 mm 0.0 W/m2 CLR
01:48 16.7 °C 12.4 °C 1017.5 hPa Calm     76 % 0.0 mm 0.0 W/m2 CLR
01:53 16.5 °C 12.3 °C 1017.5 hPa Calm     76 % 0.0 mm 0.0 W/m2 CLR
01:58 16.3 °C 12.1 °C 1017.5 hPa Calm     76 % 0.0 mm 0.0 W/m2 CLR
02:03 16.1 °C 11.9 °C 1017.2 hPa WSW 3.2 km/h 3.2 km/h 76 % 0.0 mm 0.0 W/m2 CLR
02:08 16.0 °C 11.9 °C 1017.2 hPa SW 7.4 km/h 7.4 km/h 77 % 0.0 mm 0.0 W/m2 CLR
02:13 16.1 °C 12.0 °C 1017.2 hPa Calm     77 % 0.0 mm 0.0 W/m2 CLR
02:18 16.2 °C 12.4 °C 1017.2 hPa Calm     78 % 0.0 mm 0.0 W/m2 CLR
02:23 16.4 °C 12.6 °C 1017.2 hPa WSW 5.6 km/h 5.6 km/h 78 % 0.0 mm 0.0 W/m2 CLR
02:28 16.5 °C 12.4 °C 1017.2 hPa WSW 7.4 km/h 7.4 km/h 77 % 0.0 mm 0.0 W/m2 CLR
02:33 16.6 °C 12.5 °C 1017.5 hPa WSW 5.6 km/h 5.6 km/h 77 % 0.0 mm 0.0 W/m2 CLR
02:38 16.5 °C 12.3 °C 1017.5 hPa Calm     76 % 0.0 mm 0.0 W/m2 CLR
02:43 16.3 °C 11.8 °C 1017.5 hPa Calm     75 % 0.0 mm 0.0 W/m2 CLR
02:48 16.1 °C 11.6 °C 1017.5 hPa Calm     75 % 0.0 mm 0.0 W/m2 CLR
02:53 15.8 °C 11.4 °C 1017.5 hPa Calm     75 % 0.0 mm 0.0 W/m2 CLR
02:58 15.6 °C 11.2 °C 1017.5 hPa Calm     75 % 0.0 mm 0.0 W/m2 CLR
03:03 15.6 °C 11.3 °C 1017.5 hPa Calm     76 % 0.0 mm 0.0 W/m2 CLR
03:08 15.6 °C 11.4 °C 1017.8 hPa Calm     76 % 0.0 mm 0.0 W/m2 CLR
03:13 15.7 °C 11.4 °C 1017.8 hPa Calm     76 % 0.0 mm 0.0 W/m2 CLR
03:18 15.7 °C 11.4 °C 1017.8 hPa Calm     76 % 0.0 mm 0.0 W/m2 CLR
03:23 15.7 °C 11.2 °C 1017.8 hPa Calm     75 % 0.0 mm 0.0 W/m2 CLR
03:28 15.6 °C 11.2 °C 1017.8 hPa Calm     75 % 0.0 mm 0.0 W/m2 CLR
03:33 15.6 °C 11.3 °C 1017.8 hPa Calm     76 % 0.0 mm 0.0 W/m2 CLR
03:38 15.6 °C 11.6 °C 1017.8 hPa Calm     77 % 0.0 mm 0.0 W/m2 CLR
03:43 15.8 °C 11.8 °C 1017.8 hPa West 9.3 km/h 9.3 km/h 77 % 0.0 mm 0.0 W/m2 CLR
03:48 16.1 °C 12.0 °C 1017.8 hPa WSW 5.6 km/h 5.6 km/h 77 % 0.0 mm 0.0 W/m2 CLR
03:53 16.1 °C 11.7 °C 1017.8 hPa SW 3.7 km/h 3.7 km/h 75 % 0.0 mm 0.0 W/m2 CLR
03:58 16.1 °C 11.8 °C 1017.8 hPa WSW 7.4 km/h   76 % 0.0 mm 0.0 W/m2 CLR
04:03 16.1 °C 11.8 °C 1017.8 hPa Calm     76 % 0.0 mm 0.0 W/m2 CLR
04:08 15.9 °C 11.7 °C 1017.8 hPa West 3.7 km/h   76 % 0.0 mm 0.0 W/m2 CLR
04:13 15.9 °C 11.7 °C 1017.8 hPa Calm     76 % 0.0 mm 0.0 W/m2 CLR
04:18 15.8 °C 11.6 °C 1017.8 hPa Calm     76 % 0.0 mm 0.0 W/m2 CLR
04:23 15.7 °C 11.7 °C 1017.8 hPa Calm     77 % 0.0 mm 0.0 W/m2 CLR
04:29 15.7 °C 11.7 °C 1018.2 hPa Calm     77 % 0.0 mm 0.0 W/m2 CLR
04:34 15.5 °C 11.5 °C 1018.2 hPa Calm     77 % 0.0 mm 0.0 W/m2 CLR
04:39 15.4 °C 11.6 °C 1018.2 hPa Calm     78 % 0.0 mm 0.0 W/m2 CLR
04:44 15.3 °C 11.5 °C 1018.2 hPa Calm     78 % 0.0 mm 0.0 W/m2 CLR
04:49 15.2 °C 11.3 °C 1018.2 hPa Calm     78 % 0.0 mm 0.0 W/m2 CLR
04:54 15.0 °C 11.4 °C 1018.2 hPa Calm     79 % 0.0 mm 0.0 W/m2 CLR
04:59 14.8 °C 11.4 °C 1018.2 hPa Calm     80 % 0.0 mm 0.0 W/m2 CLR
05:04 14.8 °C 11.3 °C 1018.2 hPa Calm     80 % 0.0 mm 0.0 W/m2 CLR
05:09 14.7 °C 11.3 °C 1018.5 hPa Calm     80 % 0.0 mm 0.0 W/m2 CLR
05:14 14.6 °C 11.4 °C 1018.5 hPa Calm     81 % 0.0 mm 0.0 W/m2 CLR
05:19 14.6 °C 11.2 °C 1018.5 hPa Calm     80 % 0.0 mm 0.0 W/m2 CLR
05:24 14.4 °C 11.0 °C 1018.5 hPa Calm     80 % 0.0 mm 0.0 W/m2 CLR
05:29 14.3 °C 11.1 °C 1018.5 hPa Calm     81 % 0.0 mm 0.0 W/m2 CLR
05:34 14.3 °C 11.3 °C 1018.5 hPa Calm     82 % 0.0 mm 0.0 W/m2 CLR
05:39 14.2 °C 11.0 °C 1018.5 hPa Calm     81 % 0.0 mm 0.0 W/m2 CLR
05:44 14.1 °C 10.8 °C 1018.5 hPa Calm     81 % 0.0 mm 0.0 W/m2 CLR
05:49 13.9 °C 10.9 °C 1018.5 hPa Calm     82 % 0.0 mm 0.0 W/m2 CLR
05:54 13.8 °C 10.8 °C 1018.5 hPa Calm     82 % 0.0 mm 0.0 W/m2 CLR
05:59 13.7 °C 10.9 °C 1018.8 hPa Calm     83 % 0.0 mm 0.0 W/m2 CLR
06:04 13.6 °C 10.8 °C 1018.8 hPa Calm     83 % 0.0 mm 0.0 W/m2 CLR
06:09 13.6 °C 10.7 °C 1018.8 hPa Calm     83 % 0.0 mm 0.0 W/m2 CLR
06:14 13.4 °C 10.6 °C 1018.8 hPa Calm     83 % 0.0 mm 0.0 W/m2 CLR
06:19 13.3 °C 10.5 °C 1018.8 hPa Calm     83 % 0.0 mm 0.0 W/m2 CLR
06:24 13.1 °C 10.4 °C 1018.8 hPa Calm     84 % 0.0 mm 0.0 W/m2 OVC
06:29 12.9 °C 10.3 °C 1018.8 hPa Calm     84 % 0.0 mm 0.0 W/m2 OVC
06:34 12.9 °C 10.4 °C 1018.8 hPa Calm     85 % 0.0 mm 0.0 W/m2 OVC
06:39 12.8 °C 10.4 °C 1019.2 hPa Calm     85 % 0.0 mm 5.0 W/m2 OVC
06:44 12.8 °C 10.6 °C 1019.2 hPa Calm     86 % 0.0 mm 9.0 W/m2 BKN
06:49 12.8 °C 10.6 °C 1019.2 hPa Calm     86 % 0.0 mm 12.0 W/m2 BKN
06:54 12.9 °C 10.7 °C 1019.2 hPa Calm     86 % 0.0 mm 16.0 W/m2 BKN
06:59 13.0 °C 10.7 °C 1019.2 hPa Calm     86 % 0.0 mm 19.0 W/m2 BKN
07:04 12.9 °C 10.7 °C 1019.2 hPa Calm     86 % 0.0 mm 23.0 W/m2 BKN
07:09 13.0 °C 10.7 °C 1019.5 hPa Calm     86 % 0.0 mm 28.0 W/m2 BKN
07:14 13.1 °C 10.7 °C 1019.5 hPa Calm     85 % 0.0 mm 35.0 W/m2 BKN
07:19 13.2 °C 10.7 °C 1019.5 hPa Calm     85 % 0.0 mm 49.0 W/m2 SCT
07:24 13.2 °C 10.8 °C 1019.5 hPa Calm     85 % 0.0 mm 58.0 W/m2 SCT
07:29 13.4 °C 10.9 °C 1019.5 hPa Calm     85 % 0.0 mm 67.0 W/m2 FEW
07:34 13.6 °C 11.1 °C 1019.5 hPa Calm     85 % 0.0 mm 77.0 W/m2 FEW
07:39 13.9 °C 11.4 °C 1019.5 hPa Calm     85 % 0.0 mm 88.0 W/m2 FEW
07:44 14.2 °C 11.6 °C 1019.5 hPa Calm     84 % 0.0 mm 102.0 W/m2 CLR
07:49 14.6 °C 11.7 °C 1019.5 hPa Calm     83 % 0.0 mm 116.0 W/m2 CLR
07:54 14.9 °C 11.8 °C 1019.5 hPa Calm     82 % 0.0 mm 132.0 W/m2 CLR
07:59 15.3 °C 12.1 °C 1019.5 hPa Calm     81 % 0.0 mm 149.0 W/m2 CLR
08:04 15.7 °C 12.2 °C 1019.9 hPa Calm     80 % 0.0 mm 165.0 W/m2 CLR
08:09 16.1 °C 12.3 °C 1019.9 hPa Calm     78 % 0.0 mm 183.0 W/m2 CLR
08:14 16.6 °C 12.5 °C 1019.9 hPa Calm     77 % 0.0 mm 197.0 W/m2 CLR
08:19 17.0 °C 12.6 °C 1019.9 hPa Calm     75 % 0.0 mm 216.0 W/m2 CLR
08:24 17.3 °C 12.7 °C 1019.9 hPa Calm     74 % 0.0 mm 232.0 W/m2 CLR
08:29 17.7 °C 12.8 °C 1019.9 hPa Calm     73 % 0.0 mm 246.0 W/m2 CLR
08:34 18.1 °C 12.9 °C 1019.9 hPa Calm     72 % 0.0 mm 260.0 W/m2 CLR
08:39 18.3 °C 13.0 °C 1019.9 hPa Calm     71 % 0.0 mm 278.0 W/m2 CLR
08:44 18.5 °C 12.9 °C 1019.9 hPa WNW 5.6 km/h 5.6 km/h 70 % 0.0 mm 294.0 W/m2 CLR
08:49 18.7 °C 12.9 °C 1020.2 hPa NNW 7.4 km/h 7.4 km/h 69 % 0.0 mm 309.0 W/m2 CLR
08:54 18.8 °C 12.9 °C 1020.2 hPa WNW 12.9 km/h 12.9 km/h 69 % 0.0 mm 323.0 W/m2 CLR
08:59 18.8 °C 12.8 °C 1020.2 hPa NW 9.7 km/h 9.7 km/h 68 % 0.0 mm 339.0 W/m2 CLR
09:04 18.9 °C 12.9 °C 1020.2 hPa NNW 5.6 km/h 5.6 km/h 68 % 0.0 mm 355.0 W/m2 CLR
09:09 19.1 °C 12.8 °C 1020.2 hPa WNW 9.3 km/h 9.3 km/h 67 % 0.0 mm 373.0 W/m2 CLR
09:14 19.1 °C 12.8 °C 1020.2 hPa NNW 11.1 km/h 11.1 km/h 67 % 0.0 mm 387.0 W/m2 CLR
09:19 19.3 °C 13.1 °C 1020.2 hPa NW 11.3 km/h 11.3 km/h 67 % 0.0 mm 401.0 W/m2 CLR
09:24 19.4 °C 12.9 °C 1020.5 hPa WNW 9.3 km/h 9.3 km/h 66 % 0.0 mm 418.0 W/m2 CLR
09:29 19.6 °C 13.1 °C 1020.2 hPa NW 9.3 km/h 9.3 km/h 66 % 0.0 mm 434.0 W/m2 CLR
09:34 19.7 °C 12.9 °C 1020.5 hPa WNW 1.9 km/h   65 % 0.0 mm 448.0 W/m2 CLR
09:39 19.8 °C 12.8 °C 1020.2 hPa SW 6.4 km/h 6.4 km/h 64 % 0.0 mm 462.0 W/m2 CLR
09:44 19.9 °C 12.9 °C 1020.2 hPa West 6.4 km/h 6.4 km/h 64 % 0.0 mm 476.0 W/m2 CLR
09:49 20.0 °C 13.0 °C 1020.5 hPa SW 14.8 km/h 14.8 km/h 64 % 0.0 mm 494.0 W/m2 CLR
09:54 20.2 °C 12.7 °C 1020.5 hPa WSW 11.1 km/h 11.1 km/h 62 % 0.0 mm 510.0 W/m2 CLR
09:59 20.4 °C 13.1 °C 1020.5 hPa West 5.6 km/h 5.6 km/h 63 % 0.0 mm 522.0 W/m2 CLR
10:04 20.4 °C 12.7 °C 1020.5 hPa West 9.3 km/h 9.3 km/h 61 % 0.0 mm 536.0 W/m2 CLR
10:09 20.4 °C 12.9 °C 1020.2 hPa WSW 5.6 km/h 5.6 km/h 62 % 0.0 mm 552.0 W/m2 CLR
10:10 20.4 °C 12.9 °C 1020.2 hPa WSW 5.6 km/h 5.6 km/h 62 % 0.0 mm 552.0 W/m2 CLR
10:15 20.6 °C 12.8 °C 1020.2 hPa Calm     61 % 0.0 mm 566.0 W/m2 CLR
10:20 21.1 °C 13.2 °C 1020.2 hPa Calm     61 % 0.0 mm 582.0 W/m2 CLR
10:25 21.5 °C 13.2 °C 1020.2 hPa NW 13.0 km/h 13.0 km/h 59 % 0.0 mm 598.0 W/m2 CLR
10:30 21.3 °C 13.0 °C 1020.2 hPa NW 7.4 km/h 7.4 km/h 59 % 0.0 mm 613.0 W/m2 CLR
10:35 21.4 °C 13.1 °C 1020.2 hPa Calm     59 % 0.0 mm 626.0 W/m2 CLR
10:40 21.5 °C 12.9 °C 1020.2 hPa WSW 6.4 km/h 6.4 km/h 58 % 0.0 mm 640.0 W/m2 CLR
10:45 21.4 °C 12.6 °C 1020.2 hPa WSW 5.6 km/h 5.6 km/h 57 % 0.0 mm 656.0 W/m2 CLR
10:50 21.6 °C 12.7 °C 1020.2 hPa Calm     57 % 0.0 mm 670.0 W/m2 CLR
10:55 21.9 °C 12.4 °C 1020.2 hPa WSW 7.4 km/h 7.4 km/h 55 % 0.0 mm 680.0 W/m2 CLR
11:00 22.1 °C 12.7 °C 1020.2 hPa Calm     55 % 0.0 mm 693.0 W/m2 CLR
11:05 22.3 °C 12.6 °C 1020.2 hPa WSW 5.6 km/h 5.6 km/h 54 % 0.0 mm 708.0 W/m2 CLR
11:10 22.4 °C 12.7 °C 1020.2 hPa Calm     54 % 0.0 mm 717.0 W/m2 CLR
11:15 22.6 °C 12.6 °C 1020.2 hPa SW 11.1 km/h 11.1 km/h 53 % 0.0 mm 728.0 W/m2 CLR
11:20 22.7 °C 12.3 °C 1020.2 hPa SSW 8.0 km/h 8.0 km/h 52 % 0.0 mm 742.0 W/m2 CLR
11:25 22.9 °C 12.6 °C 1019.9 hPa Calm     52 % 0.0 mm 749.0 W/m2 CLR
11:30 23.1 °C 12.7 °C 1019.9 hPa Calm     52 % 0.0 mm 759.0 W/m2 CLR
11:35 23.3 °C 12.6 °C 1019.9 hPa NNW 7.4 km/h   51 % 0.0 mm 770.0 W/m2 CLR
11:40 23.4 °C 12.4 °C 1019.9 hPa SW 1.9 km/h   50 % 0.0 mm 780.0 W/m2 CLR
11:45 23.7 °C 12.4 °C 1019.9 hPa WNW 7.4 km/h 7.4 km/h 49 % 0.0 mm 791.0 W/m2 CLR
11:50 23.8 °C 12.1 °C 1019.9 hPa NW 5.6 km/h 5.6 km/h 48 % 0.0 mm 798.0 W/m2 CLR
11:55 23.8 °C 12.1 °C 1019.9 hPa NE 5.6 km/h 5.6 km/h 48 % 0.0 mm 805.0 W/m2 CLR
12:00 24.2 °C 12.4 °C 1019.9 hPa ENE 1.9 km/h 1.9 km/h 48 % 0.0 mm 819.0 W/m2 CLR
12:05 24.3 °C 12.3 °C 1019.9 hPa Calm     47 % 0.0 mm 826.0 W/m2 CLR
12:10 24.7 °C 12.6 °C 1019.9 hPa West 3.7 km/h 3.7 km/h 47 % 0.0 mm 835.0 W/m2 CLR
12:15 25.2 °C 12.7 °C 1019.9 hPa NNW 7.4 km/h 7.4 km/h 46 % 0.0 mm 842.0 W/m2 CLR
12:20 25.4 °C 12.6 °C 1019.9 hPa Calm     45 % 0.0 mm 847.0 W/m2 CLR
12:25 25.7 °C 12.5 °C 1019.9 hPa East 5.6 km/h 5.6 km/h 44 % 0.0 mm 856.0 W/m2 CLR
12:30 25.6 °C 12.8 °C 1019.9 hPa East 4.8 km/h 4.8 km/h 45 % 0.0 mm 863.0 W/m2 CLR
12:35 25.6 °C 12.4 °C 1019.9 hPa ESE 5.6 km/h 5.6 km/h 44 % 0.0 mm 868.0 W/m2 CLR
12:40 25.4 °C 12.3 °C 1019.5 hPa SE 8.0 km/h 8.0 km/h 44 % 0.0 mm 875.0 W/m2 CLR
12:45 25.3 °C 11.8 °C 1019.5 hPa ESE 5.6 km/h 5.6 km/h 43 % 0.0 mm 882.0 W/m2 CLR
12:50 25.4 °C 12.2 °C 1019.5 hPa Calm     44 % 0.0 mm 888.0 W/m2 CLR
12:52 25.5 °C 12.3 °C 1019.5 hPa Calm     44 % 0.0 mm 886.0 W/m2 CLR
12:56 25.6 °C 12.4 °C 1019.5 hPa North 4.8 km/h 4.8 km/h 44 % 0.0 mm 891.0 W/m2 CLR
13:01 25.6 °C 12.1 °C 1019.5 hPa Calm     43 % 0.0 mm 896.0 W/m2 CLR
13:06 25.8 °C 12.3 °C 1019.5 hPa East 3.7 km/h 4.3 km/h 43 % 0.0 mm 900.0 W/m2 CLR
13:11 26.1 °C 12.2 °C 1019.2 hPa ESE 1.6 km/h 1.8 km/h 42 % 0.0 mm 905.0 W/m2 CLR
13:16 26.3 °C 12.3 °C 1019.2 hPa Calm     42 % 0.0 mm 907.0 W/m2 CLR
13:21 26.7 °C 12.7 °C 1019.2 hPa NE 13.0 km/h 13.0 km/h 42 % 0.0 mm 911.0 W/m2 CLR
13:26 26.8 °C 12.1 °C 1019.2 hPa North 7.4 km/h 7.4 km/h 40 % 0.0 mm 912.0 W/m2 CLR
13:31 26.8 °C 12.8 °C 1019.2 hPa NW 9.3 km/h 9.3 km/h 42 % 0.0 mm 914.0 W/m2 CLR
13:36 26.9 °C 12.2 °C 1019.2 hPa SSE 1.6 km/h   40 % 0.0 mm 914.0 W/m2 CLR
13:41 26.9 °C 12.2 °C 1019.2 hPa ESE 6.4 km/h 6.4 km/h 40 % 0.0 mm 919.0 W/m2 CLR
13:46 27.4 °C 12.2 °C 1018.8 hPa NE 11.1 km/h 11.1 km/h 39 % 0.0 mm 921.0 W/m2 CLR
13:51 27.3 °C 12.2 °C 1018.8 hPa Calm     39 % 0.0 mm 921.0 W/m2 CLR
13:56 27.4 °C 11.8 °C 1018.8 hPa ENE 9.7 km/h 9.7 km/h 38 % 0.0 mm 921.0 W/m2 CLR
14:01 27.5 °C 11.9 °C 1018.8 hPa ENE 12.9 km/h 12.9 km/h 38 % 0.0 mm 923.0 W/m2 CLR
14:06 27.7 °C 12.1 °C 1018.8 hPa NW 5.6 km/h 5.6 km/h 38 % 0.0 mm 921.0 W/m2 CLR
14:11 28.1 °C 12.8 °C 1018.8 hPa WNW 1.9 km/h   39 % 0.0 mm 921.0 W/m2 CLR
14:16 28.3 °C 12.7 °C 1018.5 hPa Calm     38 % 0.0 mm 918.0 W/m2 CLR
14:21 28.6 °C 12.4 °C 1018.5 hPa NE 1.6 km/h 1.6 km/h 37 % 0.0 mm 919.0 W/m2 CLR
14:26 28.7 °C 12.6 °C 1018.5 hPa ESE 5.6 km/h   37 % 0.0 mm 907.0 W/m2 CLR
14:31 28.6 °C 12.9 °C 1018.5 hPa NNE 18.5 km/h 18.5 km/h 38 % 0.0 mm 912.0 W/m2 CLR
14:36 28.6 °C 12.9 °C 1018.5 hPa NNE 16.7 km/h 16.7 km/h 38 % 0.0 mm 914.0 W/m2 CLR
14:41 28.6 °C 12.9 °C 1018.5 hPa NNE 9.3 km/h 9.3 km/h 38 % 0.0 mm 912.0 W/m2 CLR
14:46 28.7 °C 12.6 °C 1018.5 hPa SW 3.7 km/h 3.7 km/h 37 % 0.0 mm 911.0 W/m2 CLR
14:51 28.9 °C 12.7 °C 1018.5 hPa NE 14.8 km/h 14.8 km/h 37 % 0.0 mm 933.0 W/m2 CLR
14:56 29.1 °C 12.9 °C 1018.2 hPa NE 16.7 km/h 16.7 km/h 37 % 0.0 mm 942.0 W/m2 CLR
15:01 29.3 °C 13.1 °C 1018.5 hPa NE 16.7 km/h 16.7 km/h 37 % 0.0 mm 912.0 W/m2 CLR
15:06 29.3 °C 12.7 °C 1018.2 hPa ESE 5.6 km/h 5.6 km/h 36 % 0.0 mm 916.0 W/m2 CLR
15:11 29.3 °C 12.2 °C 1018.2 hPa NNE 9.3 km/h 9.3 km/h 35 % 0.0 mm 939.0 W/m2 CLR
15:16 29.3 °C 12.7 °C 1017.8 hPa South 7.4 km/h 7.4 km/h 36 % 0.0 mm 951.0 W/m2 CLR
15:21 29.4 °C 12.4 °C 1017.8 hPa North 7.4 km/h 7.4 km/h 35 % 0.0 mm 967.0 W/m2 CLR
15:26 29.9 °C 12.8 °C 1017.8 hPa North 14.8 km/h 14.8 km/h 35 % 0.0 mm 956.0 W/m2 CLR
15:31 29.7 °C 12.6 °C 1017.8 hPa North 14.8 km/h 14.8 km/h 35 % 0.0 mm 223.0 W/m2 CLR
15:36 29.3 °C 12.2 °C 1017.8 hPa Calm     35 % 0.0 mm 190.0 W/m2 CLR
15:41 28.7 °C 12.2 °C 1017.8 hPa ESE 9.3 km/h 9.3 km/h 36 % 0.0 mm 991.0 W/m2 CLR
15:46 29.0 °C 12.8 °C 1017.8 hPa ESE 11.3 km/h 11.3 km/h 37 % 0.0 mm 963.0 W/m2 CLR
15:51 29.2 °C 12.6 °C 1017.8 hPa SE 18.5 km/h 18.5 km/h 36 % 0.0 mm 937.0 W/m2 CLR
15:56 29.2 °C 12.6 °C 1017.8 hPa ESE 13.0 km/h 13.0 km/h 36 % 0.0 mm 828.0 W/m2 CLR
16:01 28.7 °C 12.6 °C 1017.8 hPa ESE 22.2 km/h 22.2 km/h 37 % 0.0 mm 214.0 W/m2 CLR
16:06 28.4 °C 12.3 °C 1017.8 hPa East 16.1 km/h 16.1 km/h 37 % 0.0 mm 350.0 W/m2 CLR
16:11 28.6 °C 12.4 °C 1017.5 hPa East 13.0 km/h 13.0 km/h 37 % 0.0 mm 886.0 W/m2 CLR
16:16 28.9 °C 12.7 °C 1017.8 hPa ESE 22.2 km/h 22.2 km/h 37 % 0.0 mm 851.0 W/m2 CLR
16:21 29.0 °C 12.4 °C 1017.8 hPa SE 13.0 km/h 13.0 km/h 36 % 0.0 mm 791.0 W/m2 CLR
16:26 29.2 °C 12.6 °C 1017.5 hPa ENE 11.3 km/h 11.3 km/h 36 % 0.0 mm 786.0 W/m2 CLR
16:31 29.1 °C 12.4 °C 1017.5 hPa SE 22.5 km/h 22.5 km/h 36 % 0.0 mm 766.0 W/m2 CLR
16:32 29.0 °C 12.4 °C 1017.5 hPa ESE 24.1 km/h 24.1 km/h 36 % 0.0 mm 770.0 W/m2 CLR
16:37 29.2 °C 12.6 °C 1017.5 hPa ESE 18.5 km/h 18.5 km/h 36 % 0.0 mm 758.0 W/m2 CLR
16:42 29.1 °C 12.5 °C 1017.5 hPa ESE 20.4 km/h 20.4 km/h 36 % 0.0 mm 749.0 W/m2 CLR
16:47 29.2 °C 12.6 °C 1017.5 hPa East 11.1 km/h 11.1 km/h 36 % 0.0 mm 737.0 W/m2 CLR
16:52 29.2 °C 12.6 °C 1017.5 hPa SE 18.5 km/h 18.5 km/h 36 % 0.0 mm 733.0 W/m2 CLR
16:57 28.9 °C 12.4 °C 1017.5 hPa ESE 24.1 km/h 24.1 km/h 36 % 0.0 mm 742.0 W/m2 CLR
17:02 28.8 °C 12.6 °C 1017.8 hPa SE 16.7 km/h 16.7 km/h 37 % 0.0 mm 733.0 W/m2 CLR
17:07 28.6 °C 12.5 °C 1017.5 hPa ESE 5.6 km/h 5.6 km/h 37 % 0.0 mm 712.0 W/m2 CLR
17:12 28.8 °C 12.7 °C 1017.5 hPa ENE 13.0 km/h 13.0 km/h 37 % 0.0 mm 703.0 W/m2 CLR
17:17 28.9 °C 12.8 °C 1017.5 hPa SE 18.5 km/h 18.5 km/h 37 % 0.0 mm 682.0 W/m2 CLR
17:22 28.9 °C 12.7 °C 1017.5 hPa South 14.8 km/h 14.8 km/h 37 % 0.0 mm 668.0 W/m2 CLR
17:27 28.7 °C 12.6 °C 1017.5 hPa SSE 20.4 km/h 20.4 km/h 37 % 0.0 mm 636.0 W/m2 CLR
17:32 28.7 °C 12.6 °C 1017.5 hPa ESE 12.9 km/h 12.9 km/h 37 % 0.0 mm 619.0 W/m2 CLR
17:37 28.7 °C 12.6 °C 1017.5 hPa ENE 11.1 km/h 11.1 km/h 37 % 0.0 mm 599.0 W/m2 CLR
17:42 28.8 °C 12.6 °C 1017.5 hPa SE 20.9 km/h 20.9 km/h 37 % 0.0 mm 608.0 W/m2 CLR
17:47 28.9 °C 12.8 °C 1017.5 hPa SE 18.5 km/h 18.5 km/h 37 % 0.0 mm 638.0 W/m2 CLR
17:52 28.9 °C 12.7 °C 1017.5 hPa SE 18.5 km/h 18.5 km/h 37 % 0.0 mm 615.0 W/m2 CLR
17:57 28.6 °C 12.5 °C 1017.5 hPa SSE 18.5 km/h 18.5 km/h 37 % 0.0 mm 497.0 W/m2 CLR
18:02 28.7 °C 12.6 °C 1017.5 hPa SSE 16.7 km/h 16.7 km/h 37 % 0.0 mm 533.0 W/m2 CLR
18:07 28.6 °C 12.4 °C 1017.5 hPa SE 24.1 km/h 24.1 km/h 37 % 0.0 mm 512.0 W/m2 CLR
18:12 28.2 °C 12.1 °C 1017.5 hPa ESE 18.5 km/h 18.5 km/h 37 % 0.0 mm 496.0 W/m2 CLR
18:17 28.2 °C 12.6 °C 1017.5 hPa SE 20.4 km/h 20.4 km/h 38 % 0.0 mm 473.0 W/m2 CLR
18:22 28.1 °C 12.4 °C 1017.5 hPa ESE 11.1 km/h 11.1 km/h 38 % 0.0 mm 455.0 W/m2 CLR
18:23 28.1 °C 12.4 °C 1017.5 hPa ESE 16.7 km/h 16.7 km/h 38 % 0.0 mm 452.0 W/m2 CLR
18:28 28.1 °C 12.4 °C 1017.5 hPa ESE 22.2 km/h 22.2 km/h 38 % 0.0 mm 432.0 W/m2 CLR
18:33 27.9 °C 12.3 °C 1017.5 hPa ESE 16.7 km/h 16.7 km/h 38 % 0.0 mm 417.0 W/m2 CLR
18:38 27.9 °C 12.3 °C 1017.5 hPa ESE 27.8 km/h 27.8 km/h 38 % 0.0 mm 403.0 W/m2 CLR
18:43 27.9 °C 12.3 °C 1017.5 hPa SE 13.0 km/h 13.0 km/h 38 % 0.0 mm 383.0 W/m2 CLR
18:48 28.1 °C 12.4 °C 1017.5 hPa ESE 20.4 km/h 20.4 km/h 38 % 0.0 mm 371.0 W/m2 CLR
18:53 27.9 °C 12.3 °C 1017.5 hPa SSE 24.1 km/h 24.1 km/h 38 % 0.0 mm 353.0 W/m2 CLR
18:58 27.8 °C 12.2 °C 1017.5 hPa SE 14.8 km/h 14.8 km/h 38 % 0.0 mm 336.0 W/m2 CLR
19:03 27.8 °C 12.2 °C 1017.5 hPa South 14.5 km/h 14.5 km/h 38 % 0.0 mm 318.0 W/m2 CLR
19:08 27.7 °C 12.1 °C 1017.5 hPa South 13.0 km/h 13.0 km/h 38 % 0.0 mm 304.0 W/m2 CLR
19:13 27.4 °C 11.9 °C 1017.5 hPa SE 18.5 km/h 18.5 km/h 38 % 0.0 mm 292.0 W/m2 CLR
19:18 27.4 °C 11.8 °C 1017.2 hPa SSE 18.5 km/h 18.5 km/h 38 % 0.0 mm 272.0 W/m2 CLR
19:23 27.3 °C 11.8 °C 1017.5 hPa SSE 18.5 km/h 18.5 km/h 38 % 0.0 mm 262.0 W/m2 CLR
19:28 27.3 °C 12.1 °C 1017.5 hPa SE 18.5 km/h 18.5 km/h 39 % 0.0 mm 246.0 W/m2 CLR
19:33 27.3 °C 12.1 °C 1017.5 hPa SE 14.8 km/h 14.8 km/h 39 % 0.0 mm 232.0 W/m2 CLR
19:38 27.2 °C 12.1 °C 1017.5 hPa SE 11.1 km/h 11.1 km/h 39 % 0.0 mm 211.0 W/m2 CLR
19:43 27.2 °C 12.0 °C 1017.5 hPa SE 20.4 km/h 20.4 km/h 39 % 0.0 mm 193.0 W/m2 CLR
19:48 27.0 °C 11.9 °C 1017.5 hPa SE 18.5 km/h 18.5 km/h 39 % 0.0 mm 178.0 W/m2 CLR
19:49 27.0 °C 11.9 °C 1017.5 hPa SE 18.5 km/h 18.5 km/h 39 % 0.0 mm 178.0 W/m2 CLR
19:54 27.1 °C 11.9 °C 1017.5 hPa SE 13.0 km/h 13.0 km/h 39 % 0.0 mm 162.0 W/m2 CLR
19:59 27.1 °C 11.9 °C 1017.5 hPa SE 16.7 km/h 16.7 km/h 39 % 0.0 mm 146.0 W/m2 CLR
20:04 26.9 °C 12.2 °C 1017.5 hPa SE 16.7 km/h 16.7 km/h 40 % 0.0 mm 130.0 W/m2 CLR
20:09 26.7 °C 12.0 °C 1017.5 hPa SE 14.8 km/h 14.8 km/h 40 % 0.0 mm 114.0 W/m2 CLR
20:14 26.6 °C 11.9 °C 1017.5 hPa SE 18.5 km/h 18.5 km/h 40 % 0.0 mm 100.0 W/m2 CLR
20:19 26.6 °C 11.8 °C 1017.5 hPa SE 11.3 km/h 11.3 km/h 40 % 0.0 mm 83.0 W/m2 FEW
20:24 26.5 °C 12.2 °C 1017.5 hPa SSE 14.8 km/h 14.8 km/h 41 % 0.0 mm 70.0 W/m2 FEW
20:29 26.4 °C 12.1 °C 1017.8 hPa SE 14.8 km/h 14.8 km/h 41 % 0.0 mm 58.0 W/m2 SCT
20:34 26.3 °C 12.0 °C 1017.8 hPa SE 14.8 km/h 14.8 km/h 41 % 0.0 mm 49.0 W/m2 SCT
20:39 26.1 °C 12.2 °C 1017.8 hPa SE 13.0 km/h 13.0 km/h 42 % 0.0 mm 37.0 W/m2 BKN
20:44 25.9 °C 12.1 °C 1017.8 hPa SE 13.0 km/h 13.0 km/h 42 % 0.0 mm 30.0 W/m2 BKN
20:49 25.8 °C 11.9 °C 1018.2 hPa ESE 7.4 km/h 7.4 km/h 42 % 0.0 mm 23.0 W/m2 BKN
20:54 25.6 °C 12.1 °C 1018.2 hPa SE 13.0 km/h 13.0 km/h 43 % 0.0 mm 18.0 W/m2 BKN
20:59 25.4 °C 11.9 °C 1018.2 hPa SE 11.1 km/h 11.1 km/h 43 % 0.0 mm 16.0 W/m2 BKN
21:04 25.3 °C 11.8 °C 1018.2 hPa SE 13.0 km/h 13.0 km/h 43 % 0.0 mm 12.0 W/m2 BKN
21:09 25.2 °C 12.1 °C 1018.2 hPa SE 14.8 km/h 14.8 km/h 44 % 0.0 mm 9.0 W/m2 BKN
21:14 25.1 °C 11.9 °C 1018.2 hPa SE 9.3 km/h 9.3 km/h 44 % 0.0 mm 7.0 W/m2 BKN
21:19 24.9 °C 11.8 °C 1018.2 hPa SE 11.1 km/h 11.1 km/h 44 % 0.0 mm 5.0 W/m2 OVC
21:24 24.7 °C 12.0 °C 1018.2 hPa SE 7.4 km/h 7.4 km/h 45 % 0.0 mm 0.0 W/m2 OVC
21:29 24.6 °C 11.8 °C 1018.2 hPa SSE 7.4 km/h 7.4 km/h 45 % 0.0 mm 0.0 W/m2 CLR
21:34 24.4 °C 11.7 °C 1018.5 hPa SE 13.0 km/h 13.0 km/h 45 % 0.0 mm 0.0 W/m2 CLR
21:39 24.2 °C 11.6 °C 1018.5 hPa SE 14.8 km/h 14.8 km/h 45 % 0.0 mm 0.0 W/m2 CLR
21:44 24.1 °C 11.7 °C 1018.5 hPa SSE 14.8 km/h 14.8 km/h 46 % 0.0 mm 0.0 W/m2 CLR
21:49 23.9 °C 11.6 °C 1018.5 hPa SE 14.8 km/h 14.8 km/h 46 % 0.0 mm 0.0 W/m2 CLR
21:54 23.8 °C 11.4 °C 1018.5 hPa SSE 14.8 km/h 14.8 km/h 46 % 0.0 mm 0.0 W/m2 CLR
21:59 23.6 °C 11.6 °C 1018.8 hPa SSE 11.3 km/h 11.3 km/h 47 % 0.0 mm 0.0 W/m2 CLR
22:04 23.4 °C 11.4 °C 1018.8 hPa SE 5.6 km/h 5.6 km/h 47 % 0.0 mm 0.0 W/m2 CLR
22:09 23.2 °C 11.3 °C 1018.8 hPa SE 14.8 km/h 14.8 km/h 47 % 0.0 mm 0.0 W/m2 CLR
22:14 23.1 °C 11.5 °C 1018.8 hPa SE 4.8 km/h 4.8 km/h 48 % 0.0 mm 0.0 W/m2 CLR
22:19 23.0 °C 11.4 °C 1018.8 hPa SE 7.4 km/h 7.4 km/h 48 % 0.0 mm 0.0 W/m2 CLR
22:24 22.9 °C 11.3 °C 1019.2 hPa SSE 12.9 km/h 12.9 km/h 48 % 0.0 mm 0.0 W/m2 CLR
22:29 22.9 °C 11.3 °C 1019.2 hPa SSE 11.1 km/h 11.1 km/h 48 % 0.0 mm 0.0 W/m2 CLR
22:34 22.8 °C 11.5 °C 1019.2 hPa SSE 5.6 km/h 5.6 km/h 49 % 0.0 mm 0.0 W/m2 CLR
22:39 22.7 °C 11.4 °C 1019.2 hPa ESE 7.4 km/h 7.4 km/h 49 % 0.0 mm 0.0 W/m2 CLR
22:44 22.6 °C 11.3 °C 1019.2 hPa SE 7.4 km/h 7.4 km/h 49 % 0.0 mm 0.0 W/m2 CLR
22:49 22.6 °C 11.3 °C 1019.2 hPa Calm     49 % 0.0 mm 0.0 W/m2 CLR
22:54 22.5 °C 11.2 °C 1019.2 hPa Calm     49 % 0.0 mm 0.0 W/m2 CLR
22:59 22.3 °C 11.1 °C 1019.2 hPa Calm     49 % 0.0 mm 0.0 W/m2 CLR
23:04 22.2 °C 11.3 °C 1019.5 hPa Calm     50 % 0.0 mm 0.0 W/m2 CLR
23:09 22.0 °C 11.4 °C 1019.5 hPa Calm     51 % 0.0 mm 0.0 W/m2 CLR
23:14 21.8 °C 11.2 °C 1019.5 hPa Calm     51 % 0.0 mm 0.0 W/m2 CLR
23:19 21.6 °C 11.3 °C 1019.5 hPa Calm     52 % 0.0 mm 0.0 W/m2 CLR
23:24 21.5 °C 11.2 °C 1019.5 hPa Calm     52 % 0.0 mm 0.0 W/m2 CLR
23:29 21.3 °C 11.1 °C 1019.5 hPa Calm     52 % 0.0 mm 0.0 W/m2 CLR
23:34 21.3 °C 11.3 °C 1019.5 hPa WSW 1.6 km/h 1.6 km/h 53 % 0.0 mm 0.0 W/m2 CLR
23:39 21.3 °C 11.3 °C 1019.5 hPa SW 5.6 km/h 5.6 km/h 53 % 0.0 mm 0.0 W/m2 CLR
23:44 21.3 °C 11.3 °C 1019.5 hPa Calm     53 % 0.0 mm 0.0 W/m2 CLR
23:49 21.2 °C 11.6 °C 1019.5 hPa Calm     54 % 0.0 mm 0.0 W/m2 CLR
23:54 20.9 °C 11.2 °C 1019.5 hPa Calm     54 % 0.0 mm 0.0 W/m2 CLR
23:59 20.6 °C 11.2 °C 1019.5 hPa Calm     55 % 0.0 mm 0.0 W/m2 CLR
Lo Temps de Massalio
Compliments of Weather Underground - 1.25 mb